Location: Passau
(48.5830°N, 13.4830°E)
Time: 10:31:44
(UTC+01:00)

NOAA 19 - Pass Details

Date: 04 December 2021
Orbit: 841 x 860 km, 99.2° (Epoch: 26 January)

Event Time Altitude Azimuth Distance (km) Brightness Sun altitude
Rises 06:22:46 0° 29° (NNE) 3,430 8.5 -12.3°
Reaches altitude 10° 06:26:09 10° 51° (NE) 2,492 8.1 -11.8°
Maximum altitude 06:29:29 16° 88° (E) 2,088 8.3 -11.3°
Drops below altitude 10° 06:32:48 10° 126° (SE) 2,488 9.1 -10.8°
Sets 06:36:09 0° 147° (SSE) 3,421 9.4 -10.3°
